Tracking 31027 objects as of 19-Jul-2025
HD Live streaming from Space Station
objects crossing your sky now

TITAN 3C TRANSTAGE DEB

Track TITAN 3C TRANSTAGE DEB now!


NORAD ID: 26528
Int'l Code: 1965-108AP
Perigee: 912.0 km
Apogee: 30,121.9 km
Inclination: 27.4 °
Period: 537.1 minutes
Semi major axis: 21887 km
RCS: 0.117 m2 (medium)
Launch date: December 21, 1965
Source: United States (US)
Launch site: AIR FORCE EASTERN TEST RANGE (AFETR)

Note: This is SATELLITE DEBRIS
Your satellite tracking list
STARLINK-31009
Track 1 satellite(s)




NASA's NSSDC Master Catalog

Two Line Element Set (TLE):
1 26528U 65108AP  25199.86407228  .00000399  00000-0  30486-1 0  9999
2 26528  27.4492  53.9492 6672616  88.0151   2.6159  2.68099232259990
Source of the keplerian elements: AFSPC